Location: Bower School (historical)
(37.8389°N, 89.5348°W)
Time: 03:52:49
(UTC+00:00)

Cosmos 1743 - Pass Details

Date: 11 December 2025
Orbit: 399 x 406 km, 82.5° (Epoch: 21 January)

Event Time Altitude Azimuth Distance (km) Brightness Sun altitude
Rises 23:12:30 0° 351° (N) 2,378 5.9 -6.7°
Reaches altitude 10° 23:14:33 10° 349° (N) 1,506 4.9 -7.1°
Maximum altitude 23:17:49 75° 264° (W) 436 2.5 -7.7°
Drops below altitude 10° 23:21:01 10° 179° (S) 1,480 5.3 -8.2°
Sets 23:23:01 0° 178° (S) 2,332 6.3 -8.6°
